GFSNW_prec_precacc6_276.txt.gz
Total_Precipitation_Accumulation
0.23 0.28 0.24 0.24 0.26 0.52 0.92 1.15 0.71 0.22 0.14 0.59 0.60 0.16 0.01 0.00 0.00 0.00 0.00 0.00 0.00 0.00 0.01 0.00 0.00 0.00 0.00 0.00 0.00 0.00 0.00 0.00 0.00 0.00 0.00 0.00 0.00 0.00 0.00 0.00 0.00 0.00 0.00 0.00
0.18 0.23 0.27 0.28 0.30 0.42 0.92 1.13 0.71 0.61 0.20 0.46 0.24 0.05 0.00 0.00 0.00 0.00 0.00 0.00 0.00 0.00 0.01 0.02 0.01 0.00 0.00 0.00 0.00 0.00 0.00 0.00 0.04 0.04 0.01 0.00 0.00 0.00 0.00 0.00 0.00 0.00 0.01 0.00
0.16 0.30 0.25 0.25 0.37 0.35 0.62 0.86 0.71 1.13 0.85 0.34 0.04 0.02 0.01 0.00 0.00 0.00 0.00 0.00 0.00 0.00 0.01 0.00 0.00 0.03 0.01 0.00 0.00 0.00 0.00 0.00 0.01 0.07 0.02 0.00 0.00 0.00 0.00 0.00 0.01 0.00 0.00 0.00
0.22 0.31 0.40 0.27 0.31 0.45 0.78 0.90 0.70 0.59 0.56 0.32 0.07 0.01 0.01 0.00 0.00 0.00 0.00 0.00 0.00 0.00 0.00 0.00 0.00 0.02 0.01 0.00 0.00 0.00 0.00 0.00 0.01 0.01 0.00 0.00 0.00 0.00 0.00 0.00 0.00 0.01 0.00 0.00
0.27 0.34 0.47 0.38 0.28 0.45 1.01 0.94 0.57 0.26 0.08 0.04 0.04 0.05 0.05 0.01 0.00 0.00 0.00 0.00 0.00 0.00 0.00 0.00 0.00 0.02 0.07 0.01 0.00 0.00 0.00 0.03 0.01 0.01 0.00 0.00 0.00 0.00 0.00 0.00 0.00 0.00 0.00 0.00
0.20 0.33 0.42 0.50 0.25 0.66 1.01 1.03 0.41 0.16 0.14 0.09 0.07 0.10 0.03 0.00 0.00 0.00 0.00 0.00 0.01 0.00 0.00 0.00 0.00 0.00 0.01 0.00 0.00 0.00 0.00 0.01 0.03 0.02 0.00 0.00 0.00 0.00 0.00 0.00 0.00 0.00 0.00 0.00
0.16 0.31 0.46 0.54 0.40 0.43 0.67 0.56 0.42 0.30 0.31 0.21 0.08 0.03 0.01 0.01 0.00 0.00 0.00 0.00 0.06 0.02 0.00 0.00 0.00 0.00 0.00 0.00 0.00 0.00 0.00 0.00 0.05 0.03 0.03 0.00 0.00 0.00 0.00 0.00 0.00 0.00 0.00 0.00
0.10 0.24 0.42 0.65 0.62 0.40 0.62 0.36 0.27 0.38 0.38 0.20 0.05 0.01 0.02 0.06 0.07 0.05 0.00 0.01 0.01 0.01 0.02 0.01 0.01 0.00 0.00 0.00 0.00 0.00 0.00 0.01 0.02 0.01 0.01 0.00 0.00 0.00 0.00 0.00 0.00 0.00 0.00 0.00
0.04 0.13 0.29 0.47 0.64 0.53 0.64 0.52 0.21 0.24 0.28 0.25 0.08 0.04 0.03 0.13 0.34 0.40 0.11 0.04 0.01 0.00 0.01 0.03 0.02 0.00 0.00 0.00 0.00 0.00 0.00 0.00 0.00 0.00 0.00 0.00 0.00 0.00 0.00 0.00 0.00 0.00 0.00 0.00
0.04 0.07 0.18 0.34 0.54 0.50 0.53 0.69 0.33 0.29 0.28 0.19 0.20 0.13 0.05 0.13 0.25 0.32 0.22 0.07 0.04 0.03 0.03 0.02 0.01 0.00 0.00 0.00 0.00 0.00 0.00 0.00 0.01 0.00 0.00 0.00 0.00 0.00 0.00 0.00 0.00 0.00 0.00 0.00
0.07 0.09 0.14 0.21 0.43 0.57 0.52 0.49 0.42 0.26 0.28 0.16 0.20 0.27 0.14 0.10 0.14 0.17 0.19 0.11 0.07 0.04 0.05 0.02 0.01 0.00 0.00 0.00 0.00 0.00 0.00 0.00 0.00 0.00 0.01 0.00 0.00 0.00 0.00 0.00 0.00 0.00 0.00 0.00
0.08 0.11 0.12 0.19 0.36 0.40 0.63 0.41 0.40 0.32 0.24 0.14 0.10 0.24 0.26 0.30 0.13 0.06 0.07 0.06 0.05 0.01 0.01 0.00 0.01 0.00 0.00 0.00 0.00 0.00 0.00 0.00 0.00 0.00 0.00 0.00 0.00 0.00 0.00 0.00 0.00 0.00 0.00 0.00
0.06 0.06 0.08 0.21 0.33 0.37 0.48 0.31 0.25 0.36 0.45 0.17 0.14 0.16 0.20 0.22 0.28 0.24 0.09 0.12 0.04 0.01 0.00 0.00 0.01 0.00 0.00 0.00 0.00 0.00 0.00 0.00 0.00 0.00 0.00 0.00 0.00 0.00 0.00 0.00 0.00 0.00 0.00 0.00
0.04 0.04 0.06 0.18 0.32 0.46 0.46 0.30 0.09 0.09 0.26 0.26 0.23 0.13 0.10 0.14 0.10 0.21 0.14 0.06 0.03 0.03 0.03 0.03 0.02 0.00 0.00 0.00 0.00 0.00 0.00 0.00 0.00 0.00 0.00 0.00 0.00 0.00 0.00 0.00 0.00 0.00 0.00 0.00
0.04 0.03 0.04 0.17 0.30 0.52 0.41 0.27 0.15 0.02 0.08 0.19 0.16 0.14 0.09 0.08 0.06 0.05 0.10 0.04 0.03 0.03 0.04 0.03 0.01 0.00 0.00 0.00 0.00 0.00 0.00 0.00 0.00 0.00 0.00 0.00 0.00 0.00 0.00 0.00 0.00 0.00 0.00 0.00
0.04 0.03 0.04 0.15 0.34 0.60 0.59 0.49 0.55 0.15 0.01 0.10 0.24 0.24 0.17 0.10 0.12 0.10 0.08 0.07 0.03 0.02 0.02 0.01 0.01 0.00 0.00 0.01 0.00 0.00 0.00 0.00 0.00 0.00 0.00 0.00 0.00 0.00 0.00 0.00 0.00 0.00 0.00 0.00
0.03 0.02 0.04 0.17 0.43 0.67 0.80 0.68 0.52 0.39 0.03 0.01 0.15 0.25 0.23 0.15 0.14 0.18 0.13 0.12 0.05 0.04 0.05 0.03 0.01 0.01 0.00 0.01 0.00 0.00 0.00 0.00 0.00 0.00 0.00 0.00 0.00 0.00 0.00 0.00 0.00 0.00 0.00 0.00
0.01 0.02 0.05 0.17 0.49 0.80 0.71 0.36 0.10 0.11 0.11 0.04 0.05 0.27 0.31 0.27 0.17 0.14 0.15 0.13 0.10 0.08 0.06 0.01 0.01 0.01 0.01 0.00 0.00 0.00 0.00 0.00 0.00 0.00 0.00 0.00 0.00 0.00 0.00 0.00 0.00 0.00 0.00 0.00
0.02 0.04 0.12 0.43 0.77 0.95 0.76 0.50 0.27 0.09 0.16 0.10 0.03 0.06 0.15 0.10 0.07 0.02 0.02 0.04 0.05 0.03 0.03 0.01 0.00 0.00 0.00 0.00 0.00 0.00 0.00 0.00 0.00 0.00 0.00 0.00 0.00 0.00 0.00 0.00 0.00 0.00 0.00 0.00
0.05 0.11 0.39 0.69 0.62 0.35 0.51 0.79 0.73 0.45 0.19 0.07 0.01 0.00 0.01 0.01 0.01 0.01 0.01 0.01 0.00 0.00 0.00 0.00 0.00 0.00 0.00 0.00 0.00 0.00 0.00 0.00 0.00 0.00 0.00 0.00 0.00 0.00 0.00 0.00 0.00 0.00 0.00 0.00
0.14 0.22 0.42 0.38 0.35 0.39 0.84 1.03 0.87 0.64 0.28 0.06 0.01 0.00 0.00 0.00 0.00 0.00 0.00 0.00 0.00 0.00 0.00 0.00 0.00 0.00 0.00 0.00 0.00 0.00 0.00 0.00 0.00 0.00 0.00 0.00 0.00 0.00 0.00 0.00 0.00 0.00 0.00 0.00
0.09 0.15 0.37 0.53 0.58 0.88 1.00 0.76 0.56 0.27 0.14 0.03 0.00 0.00 0.00 0.00 0.00 0.00 0.00 0.00 0.00 0.00 0.00 0.00 0.00 0.00 0.00 0.00 0.00 0.00 0.00 0.00 0.00 0.00 0.00 0.00 0.00 0.00 0.00 0.00 0.00 0.00 0.00 0.00
0.09 0.25 0.50 0.61 0.75 0.71 0.49 0.41 0.26 0.09 0.00 0.00 0.00 0.00 0.00 0.00 0.00 0.00 0.00 0.00 0.00 0.00 0.00 0.00 0.00 0.00 0.00 0.00 0.00 0.00 0.00 0.00 0.00 0.00 0.00 0.00 0.00 0.00 0.00 0.00 0.00 0.00 0.00 0.00
0.30 0.46 0.50 0.47 0.38 0.23 0.07 0.02 0.01 0.00 0.00 0.00 0.00 0.00 0.00 0.00 0.00 0.00 0.00 0.00 0.00 0.00 0.00 0.00 0.00 0.00 0.00 0.00 0.00 0.00 0.00 0.00 0.00 0.00 0.00 0.00 0.00 0.00 0.00 0.00 0.00 0.00 0.00 0.00
0.30 0.30 0.24 0.18 0.09 0.00 0.00 0.00 0.00 0.00 0.00 0.00 0.00 0.00 0.00 0.00 0.00 0.00 0.00 0.00 0.00 0.00 0.00 0.00 0.00 0.00 0.00 0.00 0.00 0.00 0.00 0.00 0.00 0.00 0.00 0.00 0.00 0.00 0.00 0.00 0.00 0.00 0.00 0.00
0.16 0.16 0.14 0.02 0.01 0.00 0.00 0.00 0.00 0.00 0.00 0.00 0.00 0.00 0.00 0.00 0.00 0.00 0.00 0.00 0.00 0.00 0.00 0.00 0.00 0.00 0.00 0.00 0.00 0.00 0.00 0.00 0.00 0.00 0.00 0.00 0.00 0.00 0.00 0.00 0.00 0.00 0.00 0.00
0.16 0.11 0.04 0.01 0.00 0.00 0.00 0.00 0.00 0.00 0.00 0.00 0.00 0.00 0.00 0.00 0.00 0.00 0.00 0.00 0.00 0.00 0.00 0.00 0.00 0.00 0.00 0.00 0.00 0.00 0.00 0.00 0.00 0.00 0.00 0.00 0.00 0.00 0.00 0.00 0.00 0.00 0.00 0.00

GFSNW_prec_precacc6_279.txt.gz
Total_Precipitation_Accumulation
0.11 0.12 0.21 0.23 0.21 0.48 1.01 1.45 1.33 0.54 0.22 0.72 0.68 0.36 0.03 0.00 0.00 0.00 0.00 0.00 0.00 0.00 0.01 0.00 0.00 0.00 0.00 0.00 0.00 0.00 0.00 0.00 0.00 0.00 0.00 0.00 0.00 0.00 0.00 0.00 0.00 0.00 0.00 0.00
0.08 0.09 0.20 0.29 0.27 0.47 1.13 1.58 1.25 1.02 0.37 0.81 0.58 0.18 0.01 0.00 0.00 0.00 0.00 0.00 0.00 0.00 0.01 0.01 0.00 0.00 0.00 0.00 0.00 0.00 0.00 0.00 0.05 0.04 0.01 0.00 0.00 0.00 0.00 0.00 0.00 0.00 0.01 0.00
0.09 0.13 0.16 0.28 0.42 0.41 0.99 1.47 1.32 1.66 1.07 0.58 0.34 0.12 0.03 0.00 0.00 0.00 0.00 0.00 0.00 0.00 0.02 0.02 0.01 0.06 0.01 0.00 0.00 0.00 0.00 0.00 0.02 0.08 0.04 0.00 0.00 0.00 0.00 0.00 0.01 0.00 0.00 0.00
0.10 0.17 0.27 0.29 0.41 0.55 1.08 1.53 1.41 1.06 0.99 0.62 0.41 0.09 0.03 0.01 0.01 0.00 0.00 0.00 0.00 0.00 0.01 0.04 0.08 0.05 0.02 0.00 0.00 0.00 0.00 0.00 0.01 0.01 0.02 0.01 0.01 0.00 0.00 0.00 0.00 0.00 0.00 0.01
0.11 0.16 0.32 0.39 0.40 0.73 1.50 1.42 1.16 0.71 0.32 0.17 0.19 0.18 0.11 0.02 0.00 0.00 0.00 0.00 0.00 0.00 0.00 0.01 0.04 0.10 0.08 0.00 0.00 0.00 0.00 0.02 0.02 0.02 0.00 0.00 0.01 0.00 0.00 0.00 0.00 0.00 0.00 0.00
0.11 0.16 0.19 0.44 0.35 0.95 1.42 1.38 0.86 0.46 0.33 0.19 0.17 0.19 0.09 0.01 0.00 0.00 0.00 0.00 0.00 0.00 0.00 0.00 0.00 0.00 0.03 0.02 0.00 0.00 0.00 0.00 0.03 0.04 0.02 0.00 0.00 0.00 0.00 0.00 0.00 0.00 0.00 0.00
0.09 0.20 0.22 0.39 0.47 0.67 1.12 0.90 0.87 0.49 0.53 0.36 0.27 0.10 0.04 0.02 0.00 0.01 0.00 0.00 0.00 0.00 0.00 0.00 0.00 0.00 0.00 0.02 0.00 0.01 0.00 0.00 0.05 0.03 0.06 0.04 0.00 0.00 0.00 0.00 0.00 0.00 0.00 0.00
0.05 0.17 0.26 0.37 0.63 0.61 0.81 0.77 0.66 0.66 0.38 0.39 0.17 0.07 0.06 0.08 0.04 0.04 0.01 0.00 0.00 0.00 0.01 0.01 0.00 0.00 0.00 0.01 0.02 0.01 0.01 0.02 0.04 0.02 0.02 0.00 0.00 0.00 0.00 0.00 0.00 0.00 0.00 0.00
0.02 0.06 0.18 0.32 0.53 0.61 0.69 0.64 0.70 0.58 0.36 0.23 0.14 0.12 0.15 0.16 0.24 0.38 0.21 0.09 0.02 0.01 0.02 0.03 0.02 0.00 0.00 0.00 0.01 0.00 0.00 0.00 0.01 0.00 0.00 0.00 0.00 0.00 0.00 0.00 0.00 0.00 0.00 0.00
0.03 0.03 0.10 0.25 0.34 0.52 0.60 0.62 0.58 0.74 0.42 0.17 0.11 0.17 0.16 0.18 0.23 0.36 0.32 0.19 0.09 0.07 0.03 0.01 0.00 0.00 0.00 0.00 0.00 0.00 0.00 0.00 0.00 0.00 0.00 0.00 0.00 0.00 0.00 0.00 0.00 0.00 0.00 0.00
0.06 0.06 0.04 0.16 0.31 0.41 0.63 0.44 0.47 0.53 0.37 0.17 0.21 0.27 0.21 0.14 0.16 0.25 0.31 0.24 0.20 0.10 0.04 0.01 0.00 0.00 0.00 0.00 0.00 0.00 0.00 0.00 0.00 0.00 0.00 0.00 0.00 0.00 0.00 0.00 0.00 0.00 0.00 0.00
0.07 0.10 0.07 0.13 0.29 0.36 0.69 0.43 0.33 0.37 0.25 0.20 0.15 0.32 0.39 0.40 0.15 0.12 0.14 0.13 0.16 0.05 0.02 0.00 0.00 0.00 0.00 0.00 0.00 0.00 0.00 0.00 0.00 0.00 0.00 0.00 0.00 0.00 0.00 0.00 0.00 0.00 0.00 0.00
0.05 0.06 0.05 0.11 0.22 0.38 0.52 0.36 0.35 0.40 0.41 0.17 0.09 0.13 0.36 0.43 0.51 0.32 0.17 0.26 0.12 0.05 0.01 0.00 0.01 0.00 0.00 0.00 0.00 0.00 0.00 0.00 0.00 0.00 0.00 0.00 0.00 0.00 0.00 0.00 0.00 0.00 0.00 0.00
0.04 0.06 0.05 0.05 0.15 0.37 0.52 0.35 0.19 0.40 0.27 0.16 0.09 0.06 0.09 0.29 0.36 0.53 0.29 0.16 0.11 0.09 0.10 0.12 0.05 0.00 0.00 0.00 0.00 0.00 0.00 0.00 0.00 0.00 0.00 0.00 0.00 0.00 0.00 0.00 0.00 0.00 0.00 0.00
0.05 0.06 0.07 0.03 0.08 0.31 0.51 0.44 0.29 0.26 0.31 0.16 0.07 0.06 0.04 0.09 0.26 0.25 0.33 0.20 0.18 0.26 0.31 0.24 0.09 0.01 0.00 0.00 0.00 0.00 0.00 0.00 0.00 0.00 0.00 0.00 0.00 0.00 0.00 0.00 0.00 0.00 0.00 0.00
0.05 0.08 0.09 0.04 0.05 0.27 0.62 0.61 0.65 0.33 0.14 0.17 0.17 0.17 0.14 0.09 0.16 0.28 0.29 0.24 0.19 0.28 0.33 0.24 0.10 0.04 0.00 0.00 0.00 0.00 0.00 0.00 0.00 0.00 0.00 0.00 0.00 0.00 0.00 0.00 0.00 0.00 0.00 0.00
0.03 0.06 0.10 0.04 0.06 0.32 0.74 0.78 0.82 0.81 0.18 0.11 0.21 0.24 0.24 0.18 0.21 0.25 0.30 0.48 0.27 0.22 0.28 0.24 0.19 0.08 0.02 0.00 0.00 0.00 0.00 0.00 0.00 0.00 0.00 0.00 0.00 0.00 0.00 0.00 0.00 0.00 0.00 0.00
0.02 0.03 0.06 0.06 0.14 0.34 0.51 0.44 0.36 0.48 0.35 0.19 0.08 0.25 0.38 0.40 0.32 0.29 0.25 0.32 0.34 0.23 0.20 0.12 0.06 0.02 0.00 0.00 0.00 0.00 0.00 0.00 0.00 0.00 0.00 0.00 0.00 0.00 0.00 0.00 0.00 0.00 0.00 0.00
0.02 0.05 0.09 0.12 0.19 0.38 0.39 0.50 0.53 0.53 0.50 0.28 0.06 0.06 0.20 0.24 0.25 0.16 0.17 0.18 0.23 0.19 0.11 0.04 0.02 0.02 0.00 0.00 0.00 0.00 0.00 0.00 0.00 0.00 0.00 0.00 0.00 0.00 0.00 0.00 0.00 0.00 0.00 0.00
0.06 0.08 0.10 0.14 0.11 0.12 0.28 0.65 0.80 0.59 0.41 0.25 0.02 0.00 0.01 0.06 0.10 0.17 0.20 0.14 0.12 0.09 0.03 0.00 0.00 0.00 0.00 0.00 0.00 0.00 0.00 0.00 0.00 0.00 0.00 0.00 0.00 0.00 0.00 0.00 0.00 0.00 0.00 0.00
0.10 0.04 0.05 0.09 0.22 0.18 0.47 0.78 0.84 0.72 0.43 0.19 0.03 0.00 0.00 0.00 0.01 0.07 0.09 0.08 0.06 0.03 0.02 0.00 0.00 0.00 0.00 0.00 0.00 0.00 0.00 0.00 0.00 0.00 0.00 0.00 0.00 0.00 0.00 0.00 0.00 0.00 0.00 0.00
0.03 0.01 0.06 0.31 0.39 0.50 0.73 0.65 0.56 0.44 0.29 0.08 0.01 0.00 0.00 0.00 0.00 0.02 0.05 0.04 0.02 0.01 0.00 0.00 0.00 0.00 0.00 0.00 0.00 0.00 0.00 0.00 0.00 0.00 0.00 0.00 0.00 0.00 0.00 0.00 0.00 0.00 0.00 0.00
0.06 0.09 0.26 0.43 0.48 0.51 0.44 0.39 0.32 0.17 0.09 0.00 0.00 0.00 0.00 0.00 0.00 0.00 0.01 0.01 0.00 0.00 0.00 0.00 0.00 0.00 0.00 0.00 0.00 0.00 0.00 0.00 0.00 0.00 0.00 0.00 0.00 0.00 0.00 0.00 0.00 0.00 0.00 0.00
0.14 0.20 0.29 0.30 0.30 0.16 0.08 0.03 0.01 0.00 0.00 0.00 0.00 0.00 0.00 0.00 0.00 0.00 0.00 0.00 0.00 0.00 0.00 0.00 0.00 0.00 0.00 0.00 0.00 0.00 0.00 0.00 0.00 0.00 0.00 0.00 0.00 0.00 0.00 0.00 0.00 0.00 0.00 0.00
0.17 0.17 0.13 0.12 0.08 0.01 0.00 0.00 0.01 0.00 0.00 0.00 0.00 0.00 0.00 0.00 0.00 0.00 0.00 0.00 0.00 0.00 0.00 0.00 0.00 0.00 0.00 0.00 0.00 0.00 0.00 0.00 0.00 0.00 0.00 0.00 0.00 0.00 0.00 0.00 0.00 0.00 0.00 0.00
0.16 0.14 0.11 0.02 0.02 0.01 0.00 0.01 0.03 0.01 0.00 0.00 0.00 0.00 0.00 0.00 0.00 0.00 0.00 0.00 0.00 0.00 0.00 0.00 0.00 0.00 0.00 0.00 0.00 0.00 0.00 0.00 0.00 0.00 0.00 0.00 0.00 0.00 0.00 0.00 0.00 0.00 0.00 0.00
0.06 0.08 0.05 0.01 0.03 0.01 0.02 0.04 0.00 0.00 0.00 0.00 0.00 0.00 0.00 0.00 0.00 0.00 0.00 0.00 0.00 0.00 0.00 0.00 0.00 0.00 0.00 0.00 0.00 0.00 0.00 0.00 0.00 0.00 0.00 0.00 0.00 0.00 0.00 0.00 0.00 0.00 0.00 0.00

GFSNW_prec_precacc6_282.txt.gz
Total_Precipitation_Accumulation
0.00 0.00 0.02 0.02 0.04 0.15 0.33 0.56 0.78 0.38 0.20 0.78 0.99 0.65 0.16 0.03 0.00 0.00 0.00 0.00 0.00 0.00 0.00 0.00 0.00 0.00 0.00 0.00 0.00 0.00 0.00 0.00 0.00 0.00 0.00 0.00 0.00 0.00 0.00 0.00 0.00 0.00 0.00 0.00
0.00 0.01 0.03 0.04 0.05 0.18 0.43 0.78 0.71 0.59 0.37 0.94 0.88 0.59 0.20 0.03 0.01 0.00 0.00 0.00 0.00 0.00 0.00 0.00 0.00 0.00 0.00 0.00 0.00 0.00 0.00 0.00 0.01 0.00 0.00 0.00 0.00 0.00 0.00 0.00 0.00 0.00 0.01 0.00
0.01 0.01 0.04 0.09 0.10 0.16 0.63 1.00 0.92 0.95 0.78 0.68 0.61 0.39 0.30 0.13 0.01 0.00 0.00 0.00 0.00 0.00 0.00 0.01 0.01 0.03 0.00 0.00 0.00 0.00 0.00 0.00 0.01 0.01 0.02 0.00 0.00 0.00 0.00 0.00 0.00 0.00 0.00 0.00
0.01 0.01 0.02 0.08 0.15 0.21 0.76 1.21 1.10 0.80 0.88 0.66 0.71 0.46 0.24 0.12 0.05 0.01 0.00 0.00 0.00 0.00 0.01 0.04 0.08 0.03 0.01 0.00 0.00 0.00 0.00 0.00 0.00 0.00 0.02 0.01 0.00 0.00 0.00 0.00 0.00 0.00 0.01 0.02
0.01 0.01 0.03 0.06 0.17 0.44 1.01 1.17 0.91 0.62 0.47 0.35 0.35 0.48 0.53 0.19 0.05 0.02 0.01 0.00 0.00 0.00 0.00 0.00 0.04 0.09 0.02 0.00 0.00 0.00 0.00 0.00 0.00 0.01 0.00 0.00 0.01 0.00 0.00 0.00 0.00 0.00 0.00 0.00
0.01 0.01 0.03 0.05 0.16 0.63 1.10 1.00 0.69 0.43 0.48 0.39 0.47 0.30 0.34 0.33 0.05 0.02 0.00 0.00 0.00 0.00 0.00 0.00 0.00 0.02 0.04 0.02 0.00 0.00 0.00 0.00 0.01 0.03 0.02 0.00 0.00 0.00 0.00 0.00 0.00 0.00 0.00 0.00
0.01 0.02 0.06 0.05 0.15 0.51 0.93 0.72 0.86 0.75 0.66 0.46 0.47 0.25 0.08 0.06 0.07 0.03 0.01 0.00 0.01 0.00 0.00 0.01 0.01 0.01 0.02 0.04 0.01 0.01 0.00 0.00 0.02 0.00 0.03 0.05 0.00 0.00 0.00 0.00 0.00 0.00 0.00 0.00
0.00 0.01 0.05 0.09 0.15 0.39 0.75 0.74 0.78 1.02 0.55 0.45 0.39 0.21 0.09 0.06 0.03 0.02 0.01 0.00 0.01 0.01 0.03 0.10 0.12 0.05 0.04 0.04 0.06 0.03 0.02 0.01 0.02 0.00 0.01 0.00 0.00 0.00 0.00 0.00 0.00 0.00 0.00 0.00
0.00 0.00 0.03 0.06 0.14 0.27 0.43 0.48 0.87 0.89 0.68 0.30 0.20 0.30 0.34 0.19 0.14 0.10 0.13 0.08 0.05 0.07 0.10 0.15 0.21 0.17 0.04 0.01 0.04 0.02 0.01 0.02 0.00 0.00 0.00 0.00 0.00 0.00 0.00 0.00 0.00 0.00 0.00 0.00
0.00 0.00 0.02 0.03 0.07 0.23 0.34 0.28 0.65 1.09 0.75 0.27 0.16 0.30 0.38 0.42 0.24 0.20 0.18 0.23 0.18 0.20 0.20 0.10 0.04 0.06 0.00 0.00 0.01 0.00 0.00 0.00 0.00 0.00 0.00 0.00 0.00 0.00 0.00 0.00 0.00 0.00 0.00 0.00
0.00 0.00 0.01 0.03 0.05 0.16 0.33 0.21 0.43 0.82 0.67 0.30 0.26 0.32 0.22 0.38 0.40 0.37 0.28 0.32 0.32 0.30 0.23 0.13 0.02 0.00 0.00 0.00 0.00 0.00 0.00 0.00 0.00 0.00 0.00 0.00 0.00 0.00 0.00 0.00 0.00 0.00 0.00 0.00
0.00 0.01 0.04 0.05 0.05 0.10 0.30 0.22 0.23 0.55 0.60 0.47 0.35 0.36 0.34 0.24 0.27 0.31 0.26 0.20 0.27 0.11 0.14 0.08 0.01 0.00 0.00 0.00 0.00 0.00 0.00 0.00 0.00 0.00 0.00 0.00 0.00 0.00 0.00 0.00 0.00 0.00 0.00 0.00
0.00 0.02 0.04 0.05 0.06 0.13 0.24 0.16 0.25 0.60 0.64 0.34 0.33 0.36 0.43 0.38 0.39 0.32 0.44 0.29 0.15 0.09 0.02 0.02 0.00 0.00 0.00 0.00 0.00 0.00 0.00 0.00 0.00 0.00 0.00 0.00 0.00 0.00 0.00 0.00 0.00 0.00 0.00 0.00
0.01 0.03 0.05 0.05 0.07 0.18 0.26 0.16 0.20 0.67 0.61 0.36 0.19 0.13 0.39 0.47 0.56 0.55 0.36 0.25 0.14 0.16 0.12 0.11 0.05 0.00 0.00 0.00 0.00 0.00 0.00 0.00 0.00 0.00 0.00 0.00 0.00 0.00 0.00 0.00 0.00 0.00 0.00 0.00
0.01 0.04 0.07 0.05 0.05 0.16 0.30 0.22 0.22 0.43 0.71 0.36 0.11 0.09 0.16 0.28 0.43 0.48 0.54 0.27 0.20 0.34 0.53 0.45 0.17 0.02 0.01 0.00 0.00 0.00 0.00 0.00 0.00 0.00 0.00 0.00 0.00 0.00 0.00 0.00 0.00 0.00 0.00 0.00
0.01 0.06 0.11 0.08 0.08 0.15 0.29 0.33 0.32 0.42 0.59 0.42 0.16 0.06 0.10 0.12 0.14 0.35 0.71 0.58 0.31 0.34 0.61 0.56 0.25 0.09 0.02 0.02 0.01 0.00 0.00 0.00 0.00 0.00 0.00 0.00 0.00 0.00 0.00 0.00 0.00 0.00 0.00 0.00
0.01 0.05 0.13 0.13 0.10 0.16 0.28 0.38 0.61 0.75 0.49 0.34 0.25 0.07 0.08 0.08 0.11 0.17 0.50 0.88 0.67 0.45 0.47 0.45 0.34 0.18 0.12 0.05 0.01 0.00 0.00 0.00 0.00 0.00 0.00 0.00 0.00 0.00 0.00 0.00 0.00 0.00 0.00 0.00
0.02 0.03 0.05 0.04 0.06 0.11 0.09 0.12 0.38 0.64 0.62 0.38 0.18 0.13 0.15 0.18 0.17 0.24 0.20 0.46 0.64 0.51 0.39 0.24 0.17 0.16 0.15 0.09 0.00 0.00 0.00 0.00 0.00 0.00 0.00 0.00 0.00 0.00 0.00 0.00 0.00 0.00 0.00 0.00
0.02 0.02 0.03 0.01 0.03 0.05 0.02 0.10 0.45 0.84 0.73 0.47 0.13 0.03 0.12 0.18 0.19 0.22 0.23 0.23 0.36 0.43 0.26 0.14 0.12 0.16 0.09 0.02 0.00 0.00 0.00 0.00 0.00 0.00 0.00 0.00 0.00 0.00 0.00 0.00 0.00 0.00 0.00 0.00
0.06 0.06 0.02 0.01 0.00 0.02 0.08 0.23 0.57 0.76 0.57 0.44 0.10 0.00 0.01 0.06 0.10 0.19 0.28 0.24 0.23 0.24 0.20 0.14 0.08 0.04 0.00 0.00 0.00 0.00 0.00 0.00 0.00 0.00 0.00 0.00 0.00 0.00 0.00 0.00 0.00 0.00 0.00 0.00
0.06 0.02 0.01 0.01 0.06 0.09 0.19 0.37 0.53 0.59 0.52 0.33 0.08 0.00 0.00 0.00 0.01 0.09 0.12 0.16 0.16 0.11 0.09 0.05 0.03 0.01 0.00 0.00 0.00 0.00 0.00 0.00 0.00 0.00 0.00 0.00 0.00 0.00 0.00 0.00 0.00 0.00 0.00 0.00
0.01 0.01 0.01 0.05 0.16 0.26 0.36 0.38 0.37 0.35 0.34 0.13 0.02 0.00 0.00 0.01 0.03 0.09 0.12 0.12 0.08 0.04 0.01 0.01 0.00 0.00 0.00 0.00 0.00 0.00 0.00 0.00 0.00 0.00 0.00 0.00 0.00 0.00 0.00 0.00 0.00 0.00 0.00 0.00
0.06 0.07 0.07 0.14 0.23 0.30 0.27 0.24 0.18 0.12 0.14 0.01 0.00 0.01 0.00 0.02 0.08 0.09 0.06 0.09 0.07 0.01 0.01 0.01 0.00 0.00 0.00 0.00 0.00 0.00 0.00 0.00 0.00 0.00 0.00 0.00 0.00 0.00 0.00 0.00 0.00 0.00 0.00 0.00
0.13 0.18 0.11 0.11 0.16 0.08 0.05 0.01 0.00 0.00 0.00 0.00 0.00 0.00 0.00 0.01 0.03 0.03 0.02 0.03 0.02 0.02 0.00 0.00 0.00 0.00 0.00 0.00 0.00 0.00 0.00 0.00 0.00 0.00 0.00 0.00 0.00 0.00 0.00 0.00 0.00 0.00 0.00 0.00
0.13 0.22 0.06 0.03 0.02 0.00 0.00 0.00 0.01 0.01 0.00 0.00 0.00 0.00 0.00 0.00 0.00 0.00 0.00 0.00 0.00 0.00 0.00 0.00 0.00 0.00 0.00 0.00 0.00 0.00 0.00 0.00 0.00 0.00 0.00 0.00 0.00 0.00 0.00 0.00 0.00 0.00 0.00 0.00
0.15 0.16 0.01 0.00 0.01 0.00 0.00 0.00 0.03 0.01 0.00 0.01 0.01 0.00 0.02 0.01 0.00 0.00 0.00 0.00 0.00 0.00 0.00 0.00 0.00 0.00 0.00 0.00 0.00 0.00 0.00 0.00 0.00 0.00 0.00 0.00 0.00 0.00 0.00 0.00 0.00 0.00 0.00 0.00
0.02 0.03 0.00 0.00 0.03 0.00 0.01 0.04 0.02 0.01 0.00 0.01 0.02 0.01 0.01 0.00 0.00 0.00 0.00 0.00 0.00 0.00 0.00 0.00 0.00 0.00 0.00 0.00 0.00 0.00 0.00 0.00 0.00 0.00 0.00 0.00 0.00 0.00 0.00 0.00 0.00 0.00 0.00 0.00

GFSNW_prec_precacc6_288.txt.gz
Total_Precipitation_Accumulation
0.00 0.00 0.00 0.00 0.01 0.04 0.01 0.00 0.00 0.00 0.01 0.00 0.00 0.01 0.00 0.00 0.00 0.00 0.00 0.00 0.00 0.00 0.00 0.00 0.00 0.00 0.00 0.00 0.00 0.00 0.00 0.00 0.00 0.00 0.00 0.00 0.00 0.00 0.00 0.00 0.00 0.00 0.00 0.00
0.00 0.00 0.00 0.00 0.02 0.02 0.00 0.00 0.00 0.00 0.01 0.00 0.00 0.00 0.00 0.02 0.00 0.00 0.00 0.00 0.00 0.00 0.00 0.00 0.00 0.00 0.00 0.00 0.00 0.00 0.00 0.00 0.00 0.00 0.00 0.00 0.00 0.00 0.00 0.00 0.00 0.00 0.00 0.00
0.01 0.00 0.01 0.01 0.01 0.03 0.01 0.01 0.01 0.00 0.01 0.00 0.00 0.00 0.01 0.02 0.02 0.00 0.00 0.01 0.01 0.00 0.00 0.00 0.00 0.00 0.00 0.00 0.00 0.00 0.00 0.00 0.00 0.00 0.00 0.00 0.00 0.00 0.00 0.00 0.00 0.00 0.00 0.00
0.01 0.01 0.01 0.02 0.02 0.05 0.05 0.05 0.03 0.00 0.00 0.01 0.00 0.00 0.00 0.03 0.04 0.02 0.01 0.02 0.01 0.01 0.01 0.00 0.00 0.00 0.00 0.00 0.00 0.00 0.00 0.00 0.00 0.00 0.00 0.00 0.00 0.00 0.00 0.00 0.00 0.00 0.00 0.00
0.01 0.01 0.02 0.02 0.03 0.09 0.08 0.08 0.03 0.01 0.00 0.00 0.03 0.08 0.05 0.04 0.04 0.04 0.03 0.02 0.01 0.01 0.00 0.00 0.00 0.00 0.00 0.00 0.00 0.01 0.01 0.01 0.00 0.00 0.00 0.00 0.00 0.00 0.00 0.00 0.00 0.00 0.00 0.00
0.02 0.01 0.01 0.02 0.06 0.08 0.09 0.08 0.04 0.03 0.03 0.01 0.02 0.03 0.04 0.07 0.11 0.04 0.03 0.03 0.02 0.01 0.01 0.00 0.00 0.01 0.02 0.02 0.05 0.06 0.07 0.06 0.04 0.01 0.00 0.04 0.01 0.00 0.00 0.00 0.00 0.00 0.00 0.00
0.01 0.02 0.01 0.02 0.05 0.05 0.04 0.03 0.03 0.13 0.13 0.02 0.01 0.02 0.03 0.05 0.09 0.13 0.05 0.02 0.04 0.03 0.00 0.03 0.03 0.03 0.03 0.05 0.04 0.07 0.07 0.06 0.07 0.03 0.04 0.07 0.00 0.00 0.00 0.00 0.00 0.00 0.00 0.00
0.01 0.01 0.02 0.04 0.04 0.05 0.03 0.04 0.06 0.17 0.13 0.01 0.00 0.01 0.02 0.03 0.07 0.12 0.15 0.07 0.02 0.02 0.05 0.12 0.13 0.11 0.12 0.08 0.04 0.04 0.07 0.10 0.11 0.10 0.05 0.02 0.00 0.00 0.00 0.00 0.00 0.00 0.00 0.00
0.01 0.00 0.00 0.01 0.03 0.05 0.05 0.03 0.09 0.29 0.23 0.04 0.00 0.01 0.02 0.06 0.07 0.09 0.11 0.17 0.17 0.11 0.13 0.29 0.57 0.36 0.14 0.10 0.04 0.08 0.12 0.12 0.14 0.13 0.10 0.04 0.00 0.00 0.00 0.00 0.00 0.00 0.00 0.00
0.00 0.00 0.01 0.01 0.01 0.04 0.05 0.01 0.03 0.22 0.32 0.04 0.00 0.03 0.06 0.05 0.09 0.12 0.10 0.08 0.16 0.45 0.67 0.62 0.55 0.41 0.34 0.16 0.02 0.05 0.11 0.13 0.19 0.16 0.12 0.06 0.00 0.00 0.00 0.01 0.01 0.00 0.00 0.00
0.00 0.00 0.00 0.00 0.00 0.01 0.05 0.02 0.03 0.10 0.18 0.04 0.00 0.04 0.12 0.09 0.11 0.15 0.09 0.16 0.18 0.39 0.89 1.07 0.66 0.35 0.14 0.23 0.16 0.04 0.04 0.08 0.09 0.13 0.14 0.06 0.00 0.00 0.00 0.00 0.00 0.00 0.00 0.00
0.00 0.00 0.00 0.00 0.00 0.01 0.06 0.10 0.07 0.08 0.20 0.13 0.01 0.06 0.11 0.12 0.12 0.12 0.15 0.18 0.27 0.39 0.66 0.73 0.66 0.35 0.19 0.10 0.09 0.07 0.05 0.03 0.02 0.02 0.02 0.01 0.00 0.00 0.00 0.00 0.00 0.00 0.00 0.00
0.00 0.00 0.00 0.00 0.00 0.00 0.05 0.07 0.05 0.20 0.33 0.23 0.08 0.03 0.12 0.15 0.15 0.31 0.42 0.33 0.08 0.17 0.30 0.30 0.32 0.35 0.21 0.15 0.11 0.07 0.04 0.03 0.02 0.01 0.00 0.00 0.00 0.00 0.00 0.00 0.00 0.00 0.00 0.00
0.00 0.00 0.00 0.00 0.00 0.00 0.06 0.13 0.06 0.18 0.31 0.26 0.05 0.01 0.06 0.17 0.16 0.23 0.57 0.77 0.47 0.12 0.17 0.40 0.50 0.38 0.16 0.07 0.07 0.07 0.07 0.08 0.03 0.01 0.00 0.00 0.00 0.00 0.00 0.00 0.00 0.00 0.00 0.00
0.00 0.00 0.00 0.00 0.00 0.01 0.06 0.07 0.04 0.07 0.26 0.35 0.09 0.03 0.06 0.21 0.37 0.32 0.26 0.60 0.91 0.82 0.47 0.48 0.53 0.26 0.14 0.07 0.02 0.02 0.02 0.06 0.12 0.06 0.01 0.01 0.01 0.00 0.00 0.00 0.00 0.00 0.00 0.00
0.00 0.00 0.00 0.00 0.01 0.04 0.12 0.10 0.00 0.00 0.10 0.44 0.24 0.06 0.07 0.19 0.31 0.64 0.66 0.60 0.70 0.93 1.22 0.71 0.28 0.17 0.20 0.17 0.07 0.01 0.00 0.00 0.03 0.07 0.05 0.04 0.01 0.00 0.00 0.00 0.00 0.00 0.00 0.00
0.00 0.00 0.00 0.01 0.02 0.09 0.14 0.08 0.08 0.23 0.45 0.64 0.34 0.09 0.05 0.22 0.38 0.47 0.53 0.76 1.05 1.03 1.04 1.08 0.58 0.21 0.09 0.13 0.05 0.00 0.00 0.00 0.00 0.01 0.03 0.04 0.01 0.00 0.00 0.00 0.00 0.00 0.00 0.00
0.00 0.00 0.01 0.03 0.06 0.08 0.07 0.01 0.01 0.23 0.64 0.56 0.39 0.20 0.10 0.28 0.39 0.52 0.50 0.63 0.85 0.86 0.75 0.53 0.41 0.48 0.41 0.21 0.04 0.00 0.00 0.00 0.00 0.01 0.01 0.01 0.00 0.00 0.00 0.00 0.00 0.00 0.00 0.00
0.00 0.03 0.07 0.07 0.05 0.02 0.00 0.00 0.02 0.11 0.49 0.62 0.36 0.16 0.19 0.22 0.44 0.47 0.42 0.39 0.41 0.45 0.45 0.42 0.26 0.34 0.57 0.20 0.01 0.03 0.01 0.00 0.00 0.00 0.00 0.00 0.00 0.00 0.00 0.00 0.00 0.00 0.00 0.00
0.07 0.08 0.06 0.02 0.00 0.00 0.00 0.04 0.12 0.21 0.32 0.32 0.18 0.10 0.16 0.30 0.37 0.48 0.41 0.31 0.33 0.25 0.17 0.30 0.34 0.16 0.06 0.02 0.00 0.01 0.03 0.01 0.01 0.03 0.01 0.00 0.00 0.00 0.00 0.00 0.00 0.00 0.00 0.00
0.08 0.05 0.02 0.01 0.00 0.07 0.17 0.19 0.19 0.13 0.16 0.09 0.04 0.05 0.11 0.11 0.25 0.29 0.26 0.14 0.17 0.20 0.13 0.09 0.10 0.03 0.00 0.00 0.01 0.00 0.00 0.01 0.03 0.01 0.01 0.00 0.01 0.00 0.00 0.00 0.00 0.00 0.00 0.00
0.06 0.04 0.03 0.02 0.03 0.09 0.25 0.24 0.14 0.13 0.04 0.03 0.03 0.01 0.08 0.19 0.20 0.36 0.27 0.11 0.09 0.09 0.09 0.10 0.01 0.00 0.00 0.00 0.00 0.00 0.00 0.00 0.00 0.03 0.06 0.03 0.02 0.02 0.01 0.02 0.01 0.00 0.00 0.00
0.24 0.11 0.08 0.08 0.05 0.14 0.14 0.12 0.11 0.08 0.01 0.01 0.06 0.10 0.07 0.16 0.26 0.16 0.06 0.03 0.02 0.02 0.03 0.03 0.00 0.00 0.00 0.00 0.00 0.00 0.00 0.00 0.00 0.00 0.02 0.07 0.09 0.05 0.01 0.00 0.00 0.00 0.00 0.00
0.31 0.09 0.08 0.05 0.08 0.02 0.01 0.00 0.03 0.04 0.03 0.07 0.12 0.23 0.14 0.12 0.16 0.07 0.02 0.02 0.01 0.02 0.00 0.00 0.00 0.00 0.00 0.00 0.00 0.00 0.00 0.00 0.00 0.00 0.01 0.01 0.02 0.01 0.00 0.00 0.00 0.00 0.00 0.00
0.42 0.07 0.02 0.00 0.00 0.00 0.01 0.00 0.00 0.02 0.04 0.19 0.19 0.30 0.25 0.11 0.11 0.07 0.03 0.02 0.01 0.00 0.00 0.00 0.00 0.00 0.00 0.00 0.00 0.00 0.00 0.00 0.00 0.00 0.00 0.00 0.00 0.00 0.00 0.00 0.00 0.00 0.00 0.00
0.17 0.14 0.02 0.00 0.00 0.00 0.01 0.00 0.01 0.08 0.22 0.43 0.45 0.19 0.40 0.28 0.04 0.03 0.01 0.00 0.00 0.00 0.00 0.00 0.00 0.00 0.00 0.00 0.00 0.00 0.00 0.00 0.00 0.00 0.00 0.00 0.00 0.00 0.00 0.00 0.00 0.00 0.00 0.00
0.12 0.01 0.00 0.00 0.00 0.01 0.03 0.07 0.20 0.24 0.29 0.37 0.52 0.25 0.11 0.13 0.05 0.00 0.00 0.00 0.00 0.00 0.00 0.00 0.00 0.00 0.00 0.00 0.00 0.00 0.00 0.00 0.00 0.00 0.00 0.00 0.00 0.00 0.00 0.00 0.00 0.00 0.00 0.00